Location: Moscow
(55.7500°N, 37.5830°E)
Time: 20:15:04
(UTC+03:00)

Explorer 7 - Pass Details

Date: 08 December 2021
Orbit: 483 x 674 km, 50.3° (Epoch: 19 January)

Event Time Altitude Azimuth Distance (km) Brightness Sun altitude
Exits shadow 05:19:46 22° 159° (SSE) 1,259 8.8 -27.2°
Maximum altitude 05:20:00 23° 155° (SSE) 1,253 8.8 -27.2°
Drops below altitude 10° 05:23:16 10° 103° (ESE) 1,831 10.4 -26.7°
Sets 05:25:47 0° 88° (E) 2,690 11.7 -26.4°
